Tracking 31033 objects as of 14-Jul-2025
HD Live streaming from Space Station
objects crossing your sky now

IPERDRONE.0

Track IPERDRONE.0 now!
10-day predictions


NORAD ID: 60520
Int'l Code: 2024-149BE
Perigee: 460.2 km
Apogee: 467.5 km
Inclination: 97.4 °
Period: 93.7 minutes
Semi major axis: 6834 km
RCS: Unknown
Launch date: August 16, 2024
Source: Italy (IT)
Launch site: AIR FORCE WESTERN TEST RANGE (AFWTR)
Your satellite tracking list
Your tracking list is empty




NASA's NSSDC Master Catalog

Two Line Element Set (TLE):
1 60520U 24149BE  25195.49090134  .00013252  00000-0  37485-3 0  9998
2 60520  97.4082 275.6940 0005343  50.5283 309.6433 15.36428370 50648
Source of the keplerian elements: AFSPC